Flag for Benin Weather past 2 weeks in Cotonou, Benin

Now
81 °F

Scattered clouds.


Feels Like: 86 °F
Forecast: 75 / 82 °F
Wind: 17 mph from Southwest

Location: Cotonou Airport

Current Time: Aug 1, 2015 at 5:16:09 PM

Latest Report: Aug 1, 2015 at 4:00 PM


Visibility: N/A

Pressure: 29.86 "Hg

Humidity: 84%

Dew point: 75 °F

Location of CotonouLocation

Historic Weather in Cotonou — Graph

°F

Cotonou temperature yesterday

Maximum temperature yesterday: 81 °F (at 11:00 AM)
Minimum temperature yesterday: 75 °F (at 12:00 AM)
Average temperature yesterday: 77 °F

Past Weeks' High & Low Weather Summary

 TemperatureHumidityPressure
High84 °F (Jul 18, 12:00 PM)94% (Jul 18, 4:00 AM)30.01 "Hg (Jul 18, 4:00 AM)
Low75 °F (Jul 21, 1:00 AM)74% (Jul 22, 2:00 PM)29.83 "Hg (Jul 19, 5:00 PM)
Average78 °F87%29.93 "Hg
* Reported Jul 17 3:00 PM — Aug 1 3:00 PM, Cotonou, Weather by CustomWeather, © 2015

Note: Actual official high and low records may vary slightly from our data, if they occured in-between our weather recording intervals... More about our weather records

Advertising

Cotonou weather history for previous 24 hours

 ConditionsComfort  
Time TempWeatherWind HumidityBarometerVisibility
3:00 PM
Sat, Aug 1
81 °FScattered clouds.17 mph79%29.89 "HgN/A
2:00 PM82 °FScattered clouds.17 mph79%29.92 "HgN/A
1:00 PM81 °FScattered clouds.17 mph84%29.95 "HgN/A
12:00 PM81 °FPartly sunny.16 mph79%29.98 "HgN/A
11:00 AM81 °FPartly sunny.15 mph79%29.98 "HgN/A
10:00 AM79 °FScattered clouds.15 mph84%29.98 "HgN/A
9:00 AM77 °FScattered clouds.13 mph89%29.95 "Hg5 mi
8:00 AM75 °FPartly sunny.12 mph94%29.92 "Hg5 mi
7:00 AM75 °FPartly sunny.12 mph94%29.92 "Hg5 mi
6:00 AM75 °FPassing clouds.10 mph94%29.89 "Hg5 mi
5:00 AM75 °FPassing clouds.12 mph94%29.89 "Hg5 mi
4:00 AM75 °FPassing clouds.10 mph94%29.89 "Hg5 mi
3:00 AM75 °FPassing clouds.10 mph94%29.89 "Hg5 mi
2:00 AM75 °FPassing clouds.14 mph89%29.89 "Hg5 mi
1:00 AM75 °FPassing clouds.12 mph94%29.92 "Hg5 mi
12:00 AM75 °FPassing clouds.12 mph94%29.95 "HgN/A
11:00 PM
Fri, Jul 31
75 °FPassing clouds.10 mph89%29.92 "HgN/A
10:00 PM75 °FPassing clouds.10 mph94%29.92 "HgN/A
9:00 PM75 °FPassing clouds.12 mph89%29.89 "HgN/A
8:00 PM75 °FPassing clouds.13 mph94%29.89 "HgN/A
7:00 PM77 °FPassing clouds.14 mph89%29.86 "HgN/A
6:00 PM79 °FPassing clouds.13 mph84%29.86 "HgN/A
5:00 PM79 °FScattered clouds.13 mph84%29.86 "HgN/A
Weather by CustomWeather, © 2015

See weather overviewHow to use our weather pages